Showing default

OPS 9315 (IDSCS 5), 2219

Orbit data source: Space-Track

OPS 9315 (IDSCS 5), 2219 is a payload satellite owned by USAF SSD (US) in GEO that was launched on Thu, 16 Jun 1966 UTC via a TITAN IIIC launch vehicle from the Air Force Eastern Test Range (AFETR). Payload-class satellites include a variety of spacecraft equipped with specific instruments for various scientific and technological missions. These include communications satellites like Starlink; space stations such as the ISS; scientific satellites like the Hubble; Earth observation satellites from companies like Planet Labs, Umbra, and HawkEye 360; GPS; miniature CubeSats for education and research; and military/defense satellites.

Not visible in the next 10 days
Identifier
2219, 1966-053F
Orbit
GEO
Country
Flag of USUS
Related business
Manufacturer
Philco-Ford WDL
Mission
Non-operational Defense Communications
Bus & Motor
IDCSP, Unknown motor
Mass
45 kg wet, 45 kg dry
Launch date (UTC)
1966-06-16 (59 years ago)
Launch vehicle
TITAN IIIC
Launch site
Air Force Eastern Test Range (AFETR)
Object type
Payload
Rocket body
Debris
Shape & HBR
Ico Poly, 0.5 m
Radar Cross Section
0.926 m², Large (>1 m²)

Expand to show TLE details & history
Last TLE update: 1 day ago

TLE from 1 day ago
0 OPS 9315 (IDSCS 5)
1 02219U 66053F   25260.87669438 -.00000138  00000-0  00000-0 0  9993
2 02219   8.0399  47.8163 0054019 182.3739 177.7174  1.07399203 53608
Epoch: 2025-09-17T21:02Z
TLE epoch observation values (Epoch: 2025-09-17T21:02:26.394Z)
Latitude
-0°
Longitude
95.26453°
Altitude
34,116.267 km
Speed
3.129 km/s
True Right ascension
03h 11m 41s
True Declination
0° 00' 00"
Sunlit
Object was in daylight at epoch
Visualization orbit readout
Latitude
Unknown
Longitude
Unknown
Altitude
Unknown
Speed
Unknown
Apparent Right ascension
Unknown
Apparent Declination
Unknown
Sunlit
N/A
Visualization observer readout
Local Sidereal Time
20:01:50
Azimuth
Unknown
Elevation
Unknown
Doppler factor
Unknown
Orbital elements
Apogee altitude
34,118.524 km
Perigee altitude
33,683.357 km
Semi-major axis
40,279.077 km
Eccentricity
0.0054
Inclination
8.0399°
RAAN
47.8163°
Arg. of periapsis
182.3739°
True anomaly
177.74189°
Mean anomaly
177.7174°
Eccentric anomaly
177.72966°
Mean motion
0.26849 °/min
Orbital period
1,340.85 mins
BSTAR
0
Loading maneuver chart data...
Computing Atmospheric mass density...
Loading historical data...
Loading historical data...
Loading historical data...
Loading historical data...
Loading historical data...
Loading historical data...
Loading historical data...

Documentation

Showing up to 5 results
|